Location: Pallagorio
(39.3000°N, 16.9000°E)
Time: 18:15:35
(UTC+00:00)

CZ-2C R/B - Pass Details

Date: 24 January 2021
Orbit: 785 x 870 km, 98.2° (Epoch: 03 March)

Event Time Altitude Azimuth Distance (km) Brightness Sun altitude
Exits shadow 18:10:34 23° 15° (NNE) 1,756 4.1 -24.5°
Maximum altitude 18:14:11 87° 102° (ESE) 874 2.6 -25.2°
Drops below altitude 10° 18:19:48 10° 193° (SSW) 2,507 5.3 -26.2°
Sets 18:22:10 0° 194° (SSW) 3,440 6.1 -26.7°
